Regional Weather Roundup
Issued by NWS

Home | Current Version | Previous Version | Graphics & Text | Print | Product List | Glossary Off
Versions: 1 2 3 4 5 6 7 8 9 10 11 12 13 14 15 16 17 18 19 20 21 22 23 24 25 26 27 28 29 30 31 32 33 34 35 36 37 38 39 40 41 42 43 44 45 46 47 48 49 50

432
ASUS43 KFSD 242010
RWRSD

WEATHER ROUNDUP FOR SOUTH DAKOTA
NATIONAL WEATHER SERVICE SIOUX FALLS SD
200 PM CST FRI FEB 24 2017

NOTE: "FAIR" INDICATES FEW OR NO CLOUDS BELOW 12,000 FEET WITH NO
SIGNIFICANT WEATHER AND/OR OBSTRUCTIONS TO VISIBILITY.


SDZ001>005-009-010-012>017-242100-
NORTHWEST AND NORTH CENTRAL SOUTH DAKOTA

CITY           SKY/WX    TMP DP  RH WIND       PRES   REMARKS
BUFFALO          N/A     27  11  51 S3        30.00F
FAITH            N/A     28  13  53 N12       30.08F WCI  18
MOBRIDGE       SUNNY     33  12  41 N16G23    30.07F WCI  23
$$

SDZ012>016-024>037-041>051-057-063-072>074-242100-
SOUTHWEST AND SOUTH CENTRAL SOUTH DAKOTA

CITY           SKY/WX    TMP DP  RH WIND       PRES   REMARKS
RAPID CTY ARPT CLOUDY    21  16  81 S3        30.05F
PIERRE         CLOUDY    30  13  49 N18       30.08F WCI  18
CUSTER         CLOUDY    20   8  60 W7        29.91F WCI  11
ELLSWORTH AFB  CLOUDY    23  16  75 VRB7      30.04F WCI  14
PHILIP         MOSUNNY   30  11  45 NW13      30.10F WCI  20
PINE RIDGE     CLOUDY    22  17  81 CALM      30.06F
SPEARFISH      PTSUNNY   21  18  86 CALM      30.01S
WINNER         CLOUDY    27  15  61 N20       30.06S WCI  13
$$

SDZ004>011-016>023-039-040-242100-
NORTHEAST SOUTH DAKOTA

CITY           SKY/WX    TMP DP  RH WIND       PRES   REMARKS
ABERDEEN       MOSUNNY   29  14  53 N22G28    30.05S WCI  15
WATERTOWN      PTSUNNY   27  12  53 N26G33    29.95F WCI  12
BROOKINGS      PTSUNNY   26  13  57 N25G31    29.91F WCI  11
SISSETON         N/A     26  18  71 N25       30.01F WCI  11
$$

SDZ017-020-022-023-036>040-048>070-242100-
SOUTHEAST SOUTH DAKOTA

CITY           SKY/WX    TMP DP  RH WIND       PRES   REMARKS
SIOUX FALLS    CLOUDY    27  14  58 N25G35    29.91F WCI  12
HURON          CLOUDY    31  14  49 N18G30    30.02F WCI  19
CHAMBERLAIN    CLOUDY    32  16  51 N15G22    30.04F WCI  22
MITCHELL       MOSUNNY   32  16  51 N25G32    30.01S WCI  19
YANKTON        MOSUNNY  N/A N/A N/A NW21G28   29.94F
$$

ABBREVIATIONS USED IN REMARKS
   TC - TEMPERATURE IN CELSIUS
  WCI - WIND CHILL INDEX
   HX - HEAT INDEX
  VSB - VISIBILITY





USA.gov is the U.S. government's official web portal to all federal, state and local government web resources and services.